RH
16 17 18 20 20 18 18 18 19 18 20 22 26 29 29 26 24 27 29 33 43 47 53 58 63 68 74 72 70 69 69 63 55 50 47 40 36 35 30 26 27 28 28 27
17 18 18 20 19 18 18 21 23 20 21 22 30 40 37 35 33 33 39 50 53 53 59 62 65 74 72 71 72 68 61 57 55 52 47 42 39 33 26 26 24 21 20 20
20 20 21 20 19 19 20 23 24 25 22 22 31 39 46 44 47 50 54 54 58 57 61 65 75 73 73 74 70 63 62 60 57 52 45 43 36 26 24 22 20 19 19 20
24 26 23 22 24 23 23 24 25 22 26 35 39 52 63 65 64 58 54 55 57 61 64 70 78 74 73 73 72 70 69 65 55 46 44 37 26 24 24 22 20 19 17 16
29 26 27 27 28 27 26 24 22 24 29 43 61 74 76 72 70 68 61 60 64 72 74 74 77 71 68 69 74 73 70 60 47 44 35 28 26 25 22 19 17 16 17 23
25 26 27 26 26 30 28 25 23 34 48 73 76 78 92 90 86 73 73 76 75 74 74 74 69 61 69 74 74 70 63 48 41 34 28 26 23 19 17 16 18 26 37 48
23 27 26 25 21 21 25 33 46 51 68 72 73 83 97 84 76 71 73 76 81 74 64 60 63 69 72 74 70 61 49 39 31 27 24 23 21 20 20 27 33 38 46 49
34 17 23 20 30 30 35 41 59 70 83 77 80 95 93 70 64 60 62 55 56 55 63 69 71 67 67 67 56 46 32 27 25 24 24 25 24 26 30 33 38 45 52 60
34 24 23 21 26 35 41 58 63 71 74 81 87 98 95 65 56 53 49 53 54 57 64 65 62 63 60 48 40 29 26 25 24 25 24 25 28 27 33 45 52 57 62 71
24 35 24 16 36 46 49 54 87 86 83 84 83 95 99 82 60 47 48 49 53 56 56 55 57 51 43 36 28 26 26 24 23 22 25 28 34 39 45 49 52 57 70 81
23 28 23 28 47 59 60 64 82 84 88 94 93 93 95 76 73 43 41 46 46 48 49 49 43 40 35 30 26 25 23 22 20 22 25 30 38 43 47 53 54 61 69 73
27 27 39 34 43 48 61 72 83 90 92 97 97 96 79 78 67 48 40 42 43 45 44 41 39 35 31 27 24 23 21 20 21 22 27 31 35 40 42 49 52 62 62 74
35 38 49 32 46 50 53 60 78 90 98 97 98 98 85 78 54 45 40 40 43 43 40 38 35 32 28 25 23 20 19 19 19 21 27 31 34 36 45 55 58 75 83 89
38 44 50 53 44 44 58 70 87 90 97 96 96 98 84 66 52 48 39 40 40 39 37 35 33 29 25 22 20 19 17 17 17 22 22 26 31 42 55 68 89 93 95 97
40 48 44 60 66 80 79 92 89 92 93 96 93 98 80 66 55 44 36 38 37 36 35 33 31 27 24 19 18 17 14 15 14 14 18 28 36 50 63 64 79 97 95 97
42 51 57 66 72 84 99 97 97 93 94 98 97 95 73 54 41 36 34 36 35 34 34 33 27 24 20 18 16 14 13 14 13 14 17 30 38 40 41 47 62 89 96 97
45 54 57 68 81 95 98 99 97 96 96 94 93 78 55 42 33 30 32 33 32 33 34 29 25 18 18 18 16 13 13 13 13 14 20 28 30 30 35 42 67 92 98 97
46 54 63 78 92 96 98 97 95 97 94 90 83 63 46 34 27 28 30 31 31 34 32 26 19 16 17 17 14 13 12 11 13 15 18 19 21 34 41 57 89 97 95 97
43 55 65 81 93 94 96 95 96 96 92 85 65 54 53 43 32 28 30 30 31 32 26 22 16 16 16 14 13 12 12 13 14 16 18 25 36 41 45 73 93 95 95 97
43 59 66 81 94 95 97 94 95 96 87 79 58 53 52 46 46 28 28 30 30 27 21 15 15 15 14 14 13 13 13 14 15 20 24 25 31 41 49 80 95 94 97 97
54 62 77 84 91 95 96 97 90 94 93 71 56 56 51 46 40 26 28 29 27 22 15 14 14 14 13 14 14 14 14 15 17 22 27 26 38 46 56 80 96 97 97 97
62 72 87 86 92 96 93 92 96 96 92 68 52 48 46 39 35 25 27 27 22 17 14 13 13 13 12 13 13 13 12 12 17 28 25 26 37 44 60 69 91 98 97 97
67 69 92 95 85 85 91 93 92 97 86 66 54 45 40 36 31 25 25 23 20 16 13 13 12 12 12 12 12 11 11 16 22 24 22 23 30 38 50 57 75 97 97 98
40 67 83 82 85 87 89 86 92 83 76 60 51 43 33 34 29 25 22 21 17 16 13 12 12 12 12 12 12 12 13 16 17 19 19 23 25 26 37 48 57 88 97 97
65 81 90 86 82 88 85 80 78 66 62 55 48 38 33 33 28 23 21 19 17 16 13 12 12 11 11 11 12 12 14 14 15 20 18 22 23 23 25 34 44 58 95 98
74 87 92 89 87 90 84 81 70 60 54 50 46 34 31 31 29 23 21 18 17 16 13 12 12 11 11 12 12 12 12 14 21 18 16 16 21 23 25 24 29 41 71 98